Location: Cahas Mountain Overlook
(37.0833°N, 80.1000°W)
Time: 14:50:36
(UTC-05:00)

A-11 Canister half - All Passes

Search period start: 25 January 2022 00:00
Search period end: 04 February 2022 00:00
Orbit: 1524 x 1684 km, 47.3° (Epoch: 24 January)

Date Brightness Start Highest point End Pass type
(mag) Time Alt. Az. Time Alt. Az. Time Alt. Az.
25 Jan - 09:00:23 10° S 09:07:11 23° SE 09:14:01 10° ENE daylight
25 Jan - 11:01:48 10° SW 11:11:04 80° SE 11:20:35 10° ENE daylight
25 Jan - 13:07:37 10° W 13:16:42 51° NNW 13:26:04 10° ENE daylight
25 Jan - 15:14:14 10° WNW 15:23:25 49° N 15:32:53 10° E daylight
25 Jan - 17:19:38 10° WNW 17:29:23 88° NNE 17:39:26 10° SE daylight
25 Jan - 19:25:31 10° WNW 19:33:45 32° SW 19:42:12 10° S visible
26 Jan - 08:39:05 10° S 08:45:35 22° SE 08:52:07 10° E daylight
26 Jan - 10:40:10 10° SW 10:49:25 77° SE 10:58:52 10° ENE daylight
26 Jan - 12:45:53 10° W 12:54:57 52° NNW 13:04:19 10° ENE daylight
26 Jan - 14:52:31 10° WNW 15:01:39 48° N 15:11:04 10° E daylight
26 Jan - 16:57:58 10° WNW 17:07:41 85° NNE 17:17:42 10° ESE daylight
26 Jan - 19:03:44 10° WNW 19:12:07 34° SW 19:20:43 10° S visible
27 Jan - 08:17:49 10° SSE 08:24:00 20° SE 08:30:12 10° E daylight
27 Jan - 10:18:33 10° SW 10:27:46 74° SE 10:37:10 10° ENE daylight
27 Jan - 12:24:08 10° W 12:33:13 53° NNW 12:42:35 10° ENE daylight
27 Jan - 14:30:49 10° WNW 14:39:53 48° N 14:49:15 10° E daylight
27 Jan - 16:36:17 10° WNW 16:45:59 83° NNE 16:55:59 10° ESE daylight
27 Jan - 18:41:57 10° WNW 18:50:29 35° SW 18:59:14 10° SSE visible
28 Jan - 07:56:35 10° SSE 08:02:24 19° SE 08:08:15 10° E daylight
28 Jan - 09:56:56 10° SW 10:06:06 70° SE 10:15:28 10° ENE daylight
28 Jan - 12:02:24 10° W 12:11:29 55° NNW 12:20:51 10° ENE daylight
28 Jan - 14:09:05 10° WNW 14:18:08 47° N 14:27:27 10° E daylight
28 Jan - 16:14:37 10° WNW 16:24:16 80° NNE 16:34:14 10° ESE daylight
28 Jan - 18:20:12 10° WNW 18:28:50 38° SW 18:37:43 10° SSE visible
29 Jan - 07:35:23 10° SSE 07:40:49 17° SE 07:46:16 10° E daylight
29 Jan - 09:35:19 10° SW 09:44:28 67° SE 09:53:45 10° ENE daylight
29 Jan - 11:40:39 10° W 11:49:46 56° NNW 11:59:07 10° ENE daylight
29 Jan - 13:47:22 10° WNW 13:56:22 46° N 14:05:38 10° ENE daylight
29 Jan - 15:52:56 10° WNW 16:02:33 77° NNE 16:12:29 10° ESE daylight
29 Jan - 17:58:26 10° WNW 18:07:11 40° SW 18:16:12 10° SSE visible
30 Jan - 07:14:15 10° SSE 07:19:14 16° ESE 07:24:13 10° E daylight
30 Jan - 09:13:43 10° SW 09:22:50 64° SE 09:32:03 10° ENE daylight
30 Jan - 11:18:54 10° W 11:28:02 57° NNW 11:37:23 10° ENE daylight
30 Jan - 13:25:39 10° WNW 13:34:37 46° N 13:43:50 10° ENE daylight
30 Jan - 15:31:16 10° WNW 15:40:51 75° NNE 15:50:44 10° ESE daylight
30 Jan - 17:36:42 10° WNW 17:45:32 42° SW 17:54:39 10° SSE daylight
31 Jan - 06:53:12 10° SSE 06:57:39 14° ESE 07:02:06 10° E visible
31 Jan - 08:52:07 10° SW 09:01:11 61° SE 09:10:20 10° ENE daylight
31 Jan - 10:57:10 10° W 11:06:19 59° NNW 11:15:40 10° ENE daylight
31 Jan - 13:03:55 10° WNW 13:12:51 46° N 13:22:02 10° ENE daylight
31 Jan - 15:09:36 10° WNW 15:19:08 72° NNE 15:28:58 10° ESE daylight
31 Jan - 17:14:58 10° WNW 17:23:54 44° SW 17:33:05 10° SSE daylight
01 Feb - 06:32:15 10° SSE 06:36:04 13° ESE 06:39:53 10° E visible
01 Feb - 08:30:32 10° SSW 08:39:33 58° SE 08:48:38 10° ENE daylight
01 Feb - 10:35:26 10° WSW 10:44:36 60° NNW 10:53:57 10° ENE daylight
01 Feb - 12:42:11 10° WNW 12:51:06 45° N 13:00:14 10° ENE daylight
01 Feb - 14:47:55 10° WNW 14:57:24 70° NNE 15:07:13 10° ESE daylight
01 Feb - 16:53:15 10° WNW 17:02:15 47° SW 17:11:32 10° SSE daylight
02 Feb - 06:11:28 10° SE 06:14:30 12° ESE 06:17:30 10° ESE visible
02 Feb - 08:08:58 10° SSW 08:17:55 55° SE 08:26:55 10° ENE daylight
02 Feb - 10:13:43 10° WSW 10:22:53 62° NNW 10:32:14 10° ENE daylight
02 Feb - 12:20:27 10° WNW 12:29:20 45° N 12:38:26 10° ENE daylight
02 Feb - 14:26:15 10° WNW 14:35:42 68° NNE 14:45:27 10° ESE daylight
02 Feb - 16:31:32 10° WNW 16:40:35 49° SW 16:49:57 10° SSE daylight
03 Feb - 05:51:04 10° SE 05:52:54 11° ESE 05:54:44 10° ESE visible
03 Feb - 07:47:24 10° SSW 07:56:17 52° SE 08:05:12 10° ENE daylight
03 Feb - 09:51:59 10° WSW 10:01:11 64° NNW 10:10:32 10° ENE daylight
03 Feb - 11:58:43 10° WNW 12:07:35 45° N 12:16:40 10° ENE daylight
03 Feb - 14:04:34 10° WNW 14:13:58 66° NNE 14:23:40 10° ESE daylight
03 Feb - 16:09:49 10° WNW 16:18:56 52° SW 16:28:21 10° SSE daylight
03 Feb - 18:20:05 10° WSW 18:22:28 11° WSW 18:24:52 10° SW visible
